Time,TemperatureF,DewpointF,PressureIn,WindDirection,WindDirectionDegrees,WindSpeedMPH,WindSpeedGustMPH,Humidity,HourlyPrecipIn,Conditions,Clouds,dailyrainin,SoftwareType,DateUTC
2013-10-18 00:02:00,65.0,-99.9,29.86,WSW,247,2.0,2.0,-999,-99.99,,,-99.99,,2013-10-18 07:02:00,
2013-10-18 00:52:00,64.0,-99.9,29.86,SSE,167,1.0,2.0,-999,-99.99,,,-99.99,,2013-10-18 07:52:00,
2013-10-18 01:22:00,63.0,-99.9,29.85,NNE,23,0.0,1.0,-999,-99.99,,,-99.99,,2013-10-18 08:22:00,
2013-10-18 01:32:00,63.0,-99.9,29.85,NNE,23,0.0,1.0,-999,-99.99,,,-99.99,,2013-10-18 08:32:00,
2013-10-18 01:52:00,62.0,-99.9,29.87,East,100,0.0,2.0,-999,-99.99,,,-99.99,,2013-10-18 08:52:00,
2013-10-18 02:22:00,62.0,-99.9,29.88,NNE,12,0.0,2.0,-999,-99.99,,,-99.99,,2013-10-18 09:22:00,
2013-10-18 02:53:00,61.0,-99.9,29.85,WSW,258,1.0,2.0,-999,-99.99,,,-99.99,,2013-10-18 09:53:00,
2013-10-18 03:23:00,60.0,-99.9,29.85,NE,40,1.0,2.0,-999,-99.99,,,-99.99,,2013-10-18 10:23:00,
2013-10-18 03:50:00,60.0,-99.9,29.84,NNE,18,1.0,1.0,-999,-99.99,,,-99.99,,2013-10-18 10:50:00,
2013-10-18 03:53:00,60.0,-99.9,29.84,NNE,23,0.0,2.0,-999,-99.99,,,-99.99,,2013-10-18 10:53:00,
2013-10-18 04:12:00,60.0,-99.9,29.84,NNE,18,1.0,1.0,-999,-99.99,,,-99.99,,2013-10-18 11:12:00,
2013-10-18 04:22:00,60.0,-99.9,29.84,NNE,18,1.0,1.0,-999,-99.99,,,-99.99,,2013-10-18 11:22:00,
2013-10-18 04:33:00,60.0,-99.9,29.84,NNE,18,1.0,1.0,-999,-99.99,,,-99.99,,2013-10-18 11:33:00,
2013-10-18 04:42:00,60.0,-99.9,29.84,NNE,18,1.0,1.0,-999,-99.99,,,-99.99,,2013-10-18 11:42:00,
2013-10-18 05:52:00,59.0,-99.9,29.84,NNE,23,1.0,2.0,-999,-99.99,,,-99.99,,2013-10-18 12:52:00,
2013-10-18 06:22:00,58.0,-99.9,29.84,ENE,76,2.0,3.0,-999,-99.99,,,-99.99,,2013-10-18 13:22:00,
2013-10-18 06:52:00,58.0,-99.9,29.85,ENE,57,1.0,3.0,-999,-99.99,,,-99.99,,2013-10-18 13:52:00,
2013-10-18 07:11:00,57.0,-99.9,29.85,NNW,328,0.0,1.0,-999,-99.99,,,-99.99,,2013-10-18 14:11:00,
2013-10-18 07:22:00,57.0,-99.9,29.85,NNW,328,0.0,1.0,-999,-99.99,,,-99.99,,2013-10-18 14:22:00,
2013-10-18 07:32:00,57.0,-99.9,29.85,NNW,328,0.0,1.0,-999,-99.99,,,-99.99,,2013-10-18 14:32:00,
2013-10-18 08:54:00,57.0,-99.9,29.84,WNW,284,0.0,1.0,-999,-99.99,,,-99.99,,2013-10-18 15:54:00,
2013-10-18 09:04:00,57.0,-99.9,29.84,WNW,284,0.0,1.0,-999,-99.99,,,-99.99,,2013-10-18 16:04:00,
2013-10-18 09:13:00,57.0,-99.9,29.84,WNW,284,0.0,1.0,-999,-99.99,,,-99.99,,2013-10-18 16:13:00,
2013-10-18 09:53:00,62.0,-99.9,29.88,SE,127,1.0,3.0,-999,-99.99,,,-99.99,,2013-10-18 16:53:00,
2013-10-18 10:12:00,64.0,-99.9,29.86,ESE,108,1.0,4.0,-999,-99.99,,,-99.99,,2013-10-18 17:12:00,
2013-10-18 10:22:00,64.0,-99.9,29.86,ESE,108,1.0,4.0,-999,-99.99,,,-99.99,,2013-10-18 17:22:00,
2013-10-18 10:52:00,65.0,-99.9,29.87,East,94,2.0,3.0,-999,-99.99,,,-99.99,,2013-10-18 17:52:00,
2013-10-18 11:12:00,68.0,-99.9,29.86,SW,233,2.0,3.0,-999,-99.99,,,-99.99,,2013-10-18 18:12:00,
2013-10-18 11:22:00,68.0,-99.9,29.86,SW,233,2.0,3.0,-999,-99.99,,,-99.99,,2013-10-18 18:22:00,
2013-10-18 11:30:00,71.0,-99.9,29.88,SSW,205,2.0,7.0,-999,-99.99,,,-99.99,,2013-10-18 18:30:00,
2013-10-18 11:52:00,71.0,-99.9,29.88,SSW,205,2.0,7.0,-999,-99.99,,,-99.99,,2013-10-18 18:52:00,
2013-10-18 12:01:00,71.0,-99.9,29.88,SSW,205,2.0,7.0,-999,-99.99,,,-99.99,,2013-10-18 19:01:00,
2013-10-18 12:12:00,71.0,-99.9,29.88,SSW,205,2.0,7.0,-999,-99.99,,,-99.99,,2013-10-18 19:12:00,
2013-10-18 12:22:00,71.0,-99.9,29.88,SSW,205,2.0,7.0,-999,-99.99,,,-99.99,,2013-10-18 19:22:00,
2013-10-18 12:52:00,73.0,-99.9,29.84,SSW,211,3.0,3.0,-999,-99.99,,,-99.99,,2013-10-18 19:52:00,
2013-10-18 13:22:00,77.0,-99.9,29.83,WSW,256,6.0,10.0,-999,-99.99,,,-99.99,,2013-10-18 20:22:00,
2013-10-18 13:52:00,79.0,-99.9,29.82,South,183,4.0,8.0,-999,-99.99,,,-99.99,,2013-10-18 20:52:00,
2013-10-18 14:12:00,79.0,-99.9,29.82,South,190,5.0,11.0,-999,-99.99,,,-99.99,,2013-10-18 21:12:00,
2013-10-18 14:22:00,79.0,-99.9,29.82,South,190,5.0,11.0,-999,-99.99,,,-99.99,,2013-10-18 21:22:00,
2013-10-18 14:54:00,80.0,-99.9,29.80,South,183,5.0,9.0,-999,-99.99,,,-99.99,,2013-10-18 21:54:00,
2013-10-18 15:13:00,79.0,-99.9,29.80,SSW,210,4.0,10.0,-999,-99.99,,,-99.99,,2013-10-18 22:13:00,
2013-10-18 15:24:00,79.0,-99.9,29.80,SSW,210,4.0,10.0,-999,-99.99,,,-99.99,,2013-10-18 22:24:00,
2013-10-18 15:54:00,80.0,-99.9,29.81,South,190,4.0,8.0,-999,-99.99,,,-99.99,,2013-10-18 22:54:00,
2013-10-18 16:23:00,80.0,-99.9,29.81,SSW,194,4.0,7.0,-999,-99.99,,,-99.99,,2013-10-18 23:23:00,
2013-10-18 16:53:00,80.0,-99.9,29.82,West,276,4.0,9.0,-999,-99.99,,,-99.99,,2013-10-18 23:53:00,
2013-10-18 17:12:00,79.0,-99.9,29.83,West,276,4.0,9.0,-999,-99.99,,,-99.99,,2013-10-19 00:12:00,
2013-10-18 17:22:00,79.0,-99.9,29.82,WNW,297,4.0,7.0,-999,-99.99,,,-99.99,,2013-10-19 00:22:00,
2013-10-18 17:52:00,78.0,-99.9,29.84,WNW,296,4.0,10.0,-999,-99.99,,,-99.99,,2013-10-19 00:52:00,
2013-10-18 18:22:00,76.0,-99.9,29.82,WNW,293,4.0,7.0,-999,-99.99,,,-99.99,,2013-10-19 01:22:00,
2013-10-18 18:53:00,74.0,-99.9,29.86,WNW,285,3.0,7.0,-999,-99.99,,,-99.99,,2013-10-19 01:53:00,
2013-10-18 19:12:00,73.0,-99.9,29.85,WNW,295,3.0,5.0,-999,-99.99,,,-99.99,,2013-10-19 02:12:00,
2013-10-18 19:22:00,73.0,-99.9,29.85,WNW,295,3.0,5.0,-999,-99.99,,,-99.99,,2013-10-19 02:22:00,
2013-10-18 19:42:00,72.0,-99.9,29.85,WNW,286,2.0,3.0,-999,-99.99,,,-99.99,,2013-10-19 02:42:00,
2013-10-18 19:52:00,72.0,-99.9,29.85,WNW,286,2.0,3.0,-999,-99.99,,,-99.99,,2013-10-19 02:52:00,
2013-10-18 20:12:00,71.0,-99.9,29.87,WNW,286,1.0,3.0,-999,-99.99,,,-99.99,,2013-10-19 03:12:00,
2013-10-18 20:23:00,71.0,-99.9,29.87,WNW,286,1.0,3.0,-999,-99.99,,,-99.99,,2013-10-19 03:23:00,
2013-10-18 20:55:00,70.0,-99.9,29.87,NW,325,2.0,5.0,-999,-99.99,,,-99.99,,2013-10-19 03:55:00,
2013-10-18 21:24:00,69.0,-99.9,29.87,West,279,0.0,2.0,-999,-99.99,,,-99.99,,2013-10-19 04:24:00,
2013-10-18 21:44:00,68.0,-99.9,29.87,North,353,0.0,1.0,-999,-99.99,,,-99.99,,2013-10-19 04:44:00,
2013-10-18 21:54:00,68.0,-99.9,29.86,West,270,0.0,1.0,-999,-99.99,,,-99.99,,2013-10-19 04:54:00,
2013-10-18 22:23:00,67.0,-99.9,29.87,SE,135,0.0,1.0,-999,-99.99,,,-99.99,,2013-10-19 05:23:00,
2013-10-18 22:43:00,67.0,-99.9,29.89,West,270,0.0,0.0,-999,-99.99,,,-99.99,,2013-10-19 05:43:00,
2013-10-18 22:52:00,67.0,-99.9,29.89,West,270,0.0,0.0,-999,-99.99,,,-99.99,,2013-10-19 05:52:00,
2013-10-18 23:22:00,65.0,-99.9,29.85,WNW,293,0.0,0.0,-999,-99.99,,,-99.99,,2013-10-19 06:22:00,
2013-10-18 23:42:00,65.0,-99.9,29.87,SW,216,0.0,1.0,-999,-99.99,,,-99.99,,2013-10-19 06:42:00,
2013-10-18 23:52:00,64.0,-99.9,29.85,South,180,0.0,0.0,-999,-99.99,,,-99.99,,2013-10-19 06:52:00,